COSMOS 2492 (754)

Last updated on Wed Apr 23 2025 00:03:11 GMT+0000 (Coordinated Universal Time)

1 39620U 14012A 25111.94313594 -.00000014 00000+0 00000+0 0 9990 2 39620 65.5325 328.2187 0012357 330.4870 29.4935 2.13103184 86269
UTC large
Height (km)
Speed (km/s)
/
Latitude / Longitude
Inclination (degrees)
Orbital Period (minutes)
Azimuth
Elevation
Range (km)
Doppler Factor

Next 0 passes for location: London (51.5072 / 0.1276)

Sorry there are no passes over London.